Tel Aviv, Israel

5:30 PM IST on January 17, 2019 (GMT +0200)
Ben Gurion

Weather History for LLBG - January, 2019

Change the Weather History Date:

Tuesday, January 1, 2019

  Actual Average Record
Temperature  
Mean Temperature 54 °F -  
Max Temperature 65 °F 61 °F 77 °F (2000)
Min Temperature 44 °F 47 °F 43 °F (2014)
Degree Days  
Heating Degree Days 10    
Growing Degree Days 4 (Base 50)    
Moisture  
Dew Point 45 °F    
Average Humidity 72    
Maximum Humidity 93    
Minimum Humidity 39    
Precipitation  
Precipitation 0.00 in - - ()
Sea Level Pressure  
Sea Level Pressure 30.04 in    
Wind  
Wind Speed 3 mph ()    
Max Wind Speed 9 mph    
Max Gust Speed -    
Visibility 6.1 miles    
Events      
Averages and records for this station are not official NWS values.
T = Trace of Precipitation, MM = Missing Value Source: Averaged Metar Reports

Daily Weather History Graph

Daily Weather History Graph

Search for Another Location

Airport or City:

Astronomy

Jan. 01, 2019 Rise Set
Actual Time 6:40 AM IST 4:46 PM IST
Civil Twilight 6:13 AM IST 5:13 PM IST
Nautical Twilight 5:43 AM IST 5:44 PM IST
Astronomical Twilight 5:13 AM IST 6:13 PM IST
Moon 2:12 AM IST (1/1) 1:34 PM IST (1/1)
Length of Visible Light 10h 59m
Length of Day
10h 05m
Waning Crescent, 20% of the Moon is Illuminated
Jan 1
Waning Crescent
Jan 6
New
Jan 14
First Quarter
Jan 21
Full
Jan 27
Last Quarter

Hourly Weather History & Observations

Time (IST) Temp. Windchill Dew Point Humidity Pressure Visibility Wind Dir Wind Speed Gust Speed Precip Events Conditions
12:20 AM 50.0 °F - 46.4 °F 87% 30.09 in - Variable 2.3 mph - N/A   Clear
12:50 AM 48.2 °F - 46.4 °F 93% 30.06 in - Variable 3.5 mph - N/A   Clear
1:20 AM 46.4 °F 45.2 °F 44.6 °F 93% 30.06 in - Variable 3.5 mph - N/A   Clear
1:50 AM 46.4 °F - 44.6 °F 93% 30.06 in - Variable 1.2 mph - N/A   Clear
2:20 AM 46.4 °F - 44.6 °F 93% 30.06 in - Variable 1.2 mph - N/A   Clear
2:50 AM 46.4 °F - 44.6 °F 93% 30.06 in - Variable 2.3 mph - N/A   Clear
3:20 AM 46.4 °F - 42.8 °F 87% 30.06 in - Variable 2.3 mph - N/A   Clear
3:50 AM 46.4 °F - 42.8 °F 87% 30.04 in - Variable 2.3 mph - N/A   Clear
4:20 AM 44.6 °F - 42.8 °F 93% 30.04 in - Variable 1.2 mph - N/A   Clear
4:50 AM 44.6 °F - 42.8 °F 93% 30.04 in - Variable 1.2 mph - N/A   Clear
5:00 AM 44 °F - 43 °F 93% 30.05 in 6 mi North 2.2 mph - -   Clear
5:20 AM 44.6 °F - 42.8 °F 93% 30.04 in - Variable 1.2 mph - N/A   Clear
5:50 AM 44.6 °F - 42.8 °F 93% 30.04 in - Variable 1.2 mph - N/A   Clear
6:20 AM 44.6 °F - 42.8 °F 93% 30.04 in - Calm Calm - N/A   Clear
6:50 AM 44.6 °F - 42.8 °F 93% 30.04 in - Variable 1.2 mph - N/A   Clear
7:20 AM 44.6 °F - 42.8 °F 93% 30.06 in - Variable 2.3 mph - N/A   Clear
7:50 AM 46.4 °F - 42.8 °F 87% 30.06 in - Variable 2.3 mph - N/A   Clear
8:00 AM 47 °F - 43 °F 82% 30.08 in 6 mi East 4.5 mph - -   Clear
8:50 AM 53.6 °F - 46.4 °F 77% 30.06 in - Calm Calm - N/A   Clear
9:20 AM 55.4 °F - 44.6 °F 67% 30.06 in - Variable 2.3 mph - N/A   Clear
9:50 AM 59.0 °F - 46.4 °F 63% 30.04 in - Variable 2.3 mph - N/A   Clear
10:20 AM 60.8 °F - 44.6 °F 55% 30.04 in - Variable 3.5 mph - N/A   Clear
10:50 AM 62.6 °F - 46.4 °F 55% 30.01 in - West 5.8 mph - N/A   Clear
11:00 AM 64 °F - 45 °F 39% 30.03 in 6 mi West 4.5 mph - -   Clear
11:20 AM 64.4 °F - 42.8 °F 45% 30.01 in - West 4.6 mph - N/A   Clear
11:50 AM 66.2 °F - 42.8 °F 43% 30.01 in 6.2 mi West 8.1 mph - N/A   Partly Cloudy
12:20 PM 64.4 °F - 42.8 °F 45% 30.01 in 6.2 mi West 9.2 mph - N/A   Partly Cloudy
12:50 PM 64.4 °F - 46.4 °F 52% 30.01 in 6.2 mi West 6.9 mph - N/A   Partly Cloudy
1:20 PM 64.4 °F - 46.4 °F 52% 29.98 in 6.2 mi West 8.1 mph - N/A   Partly Cloudy
1:50 PM 64.4 °F - 44.6 °F 49% 29.98 in 6.2 mi WSW 8.1 mph - N/A   Partly Cloudy
2:00 PM 64 °F - 45 °F 39% 30.01 in 6 mi West 6.7 mph - -   Scattered Clouds
2:20 PM 64.4 °F - 46.4 °F 52% 30.01 in 6.2 mi West 8.1 mph - N/A   Partly Cloudy
2:50 PM 64.4 °F - 46.4 °F 52% 29.98 in 6.2 mi West 5.8 mph - N/A   Partly Cloudy
3:20 PM 64.4 °F - 46.4 °F 52% 30.01 in 6.2 mi WSW 5.8 mph - N/A   Partly Cloudy
3:50 PM 62.6 °F - 46.4 °F 55% 30.01 in 6.2 mi West 4.6 mph - N/A   Partly Cloudy
4:20 PM 62.6 °F - 50.0 °F 63% 30.01 in 6.2 mi WSW 8.1 mph - N/A   Partly Cloudy
4:50 PM 60.8 °F - 50.0 °F 68% 30.01 in - WSW 5.8 mph - N/A   Clear
5:00 PM 60 °F - 50 °F 61% 30.03 in 6 mi WSW 4.5 mph - -  
5:20 PM 59.0 °F - 50.0 °F 72% 30.04 in - SW 4.6 mph - N/A   Clear
5:50 PM 59.0 °F - 50.0 °F 72% 30.04 in - South 4.6 mph - N/A   Clear
6:20 PM 59.0 °F - 50.0 °F 72% 30.04 in - SSE 5.8 mph - N/A   Clear
7:20 PM 57.2 °F - 46.4 °F 67% 30.06 in - SE 6.9 mph - N/A   Clear
7:50 PM 55.4 °F - 48.2 °F 77% 30.06 in - SE 5.8 mph - N/A   Clear
8:00 PM 56 °F - 47 °F 64% 30.07 in 6 mi SE 6.7 mph - -  
8:20 PM 55.4 °F - 46.4 °F 72% 30.04 in - ESE 5.8 mph - N/A   Clear
8:50 PM 53.6 °F - 48.2 °F 82% 30.06 in - ESE 4.6 mph - N/A   Clear
9:20 PM 53.6 °F - 46.4 °F 77% 30.04 in - Variable 3.5 mph - N/A   Clear
9:50 PM 53.6 °F - 46.4 °F 77% 30.04 in - SE 4.6 mph - N/A   Clear
10:20 PM 51.8 °F - 46.4 °F 82% 30.04 in - ESE 5.8 mph - N/A   Clear
10:50 PM 51.8 °F - 46.4 °F 82% 30.04 in - Variable 3.5 mph - N/A   Clear
11:00 PM 52 °F - 45 °F 71% 30.06 in 6 mi SE 4.5 mph - -   Scattered Clouds
11:20 PM 51.8 °F - 44.6 °F 76% 30.04 in - ESE 5.8 mph - N/A   Clear
11:50 PM 51.8 °F - 44.6 °F 76% 30.04 in - Variable 2.3 mph - N/A   Clear